Location: Izdebno
(52.6670°N, 16.2170°E)
Time: 06:19:54
(UTC+02:00)

Vanguard 2 Rocket - Pass Details

Date: 28 February 2024
Orbit: 555 x 3307 km, 32.9° (Epoch: 24 April)

Event Time Altitude Azimuth Distance (km) Brightness Sun altitude
Rises 18:08:13 0° 260° (W) 5,286 13.4 -6.4°
Reaches altitude 10° 18:12:11 10° 247° (WSW) 4,691 11.9 -7.0°
Maximum altitude 18:22:26 25° 200° (SSW) 4,414 10.6 -8.5°
Drops below altitude 10° 18:35:44 10° 156° (SSE) 6,162 10.9 -10.6°
Sets 18:42:10 0° 145° (SE) 7,284 11.1 -11.5°
